Ralph M Calhoun Memorial Airport

Jump to: basic info | weather | runways | comments

Related pages: nearby airports | nearby navaids | notams | map

Basic information (top)

Codes: TAL PATA
Location: lon 65.174400, lat -152.108994, elev 236 ft / 72 m msl
Status: small_airport
Scheduled airline service: no
Links: Wikipedia Mobile

Weather (top)

Current conditions (rec'd 2014/11/26 12:52Z):

PATA 261252Z AUTO 02004KT 10SM FEW035 M23/M25 A3055

Airport forecast (rec'd 2014/11/26 12:24Z):

TAF PATA 261120Z 2612/2712 00000KT P6SM SCT030

Runways (top)

07/25: 4,400 x 150 ft (1,341 x 46 m) — other (GRVL-P) — not lighted

Latest comments (top)

Memorial for what?: As I did not know him personally, I did ... [read]

More... (top)

See also NOTAMs and nearby airports and navaids, or visit the Ralph M Calhoun Memorial Airport page at the main OurAirports website..